map of LST home
LST - Airport
Location
City:  Launceston, Tasmania, Australia
ICAO:YMLT
IATA:LST

Details
Type:Airport (Aerodrome, Airfield)
Use:Public/Civil
Latitude:4132'43"S (-41.545277)
Longitude:14712'51"E (147.214167)
Datum:WGS 1984
Elevation:562 ft (171 m)
Variation:14.33E (WMM2015v2 magnetic declination)
0.03 annual change
Runways:3
Longest:6499 × 148 ft (1981 × 45 m), paved

Time
Time Zone:UTC+10 (DST+11)
Local Time:

Weather
METAR:YMLT 041400Z AUTO 16011KT 9999 // OVC023 OVC038 16/12 Q1018
TAF:YMLT 041117Z 0412/0512 17012KT 9999 -SHRA SCT015 BKN020
FM042200 14012KT 9999 -SHRA BKN025
FM050200 14012KT 9999 -SHRA BKN035 INTER 0412/0415 4000 SHRA BKN010

Related Locations
Nearby:
Farthest:CVU: 12277 mi / 19758 km
Corvo Island, 20, PT

Find:

   beyond  
but within

Other Information
Maps:
NOTAMs:
Links:
Sources:

  
  • flag of Australia
  • flag of Tasmania
  

Sectional Chart

Flight Planning
at skyvector.com

Satellite Image

Google Maps Satellite view

 

Copyright © 2004-2019 Karl L. Swartz. All rights reserved.
The Great Circle Mapper name and logo are trademarks of the Great Circle Mapper.
All other trademarks mentioned herein belong to their respective owners.
Please see credits for attibutions and further copyright information.

  Follow gcmap on Facebook Follow gcmap on Twitter GCmap on LinkedIn

hCard Microformat

Geo Microformat